TRAAC DEB, 10796

Orbit data source: Space-Track

TRAAC DEB, 10796 is space debris in LEO originally from an American launch on Wed, 15 Nov 1961 UTC launched from the Air Force Eastern Test Range (AFETR). Debris objects in space refer to the collection of defunct objects orbiting the Earth. Examples of debris include non-operational satellites, rocket bodies, and fragments generated from explosions, collisions, or faulty payload assembly.

Loading next visibility...
Identifier
10796, 1961-031D
Orbit
LEO
Last TLE update
1 day ago
Origin
Manufacturer
Unknown
Mission
Spacecraft
Bus & Motor
Unknown
Mass
Unknown
Launch date (UTC)
1961-11-15 (63 years ago)
Launch vehicle
Unknown
Launch site
Air Force Eastern Test Range (AFETR)
Object type
Payload
Rocket body
Debris
Shape & HBR
Unknown
Radar Cross Section
Small (<0.1 m²)

Expand to show TLE details & history

TLE from 1 day ago
0 TRAAC DEB
1 10796U 61031D   25128.28090647  .00000087  00000-0  76160-4 0  9997
2 10796  32.4430 325.6115 0101782 228.6908 300.9377 13.63197194164956
Epoch: 2025-05-08T06:44Z
Definitive object data (Epoch: 2025-05-08T06:44:30.319Z)
Latitude
6.07589°
Longitude
168.5425°
Altitude
984.098 km
Speed
7.381 km/s
True Right ascension
09h 04m 05s
True Declination
6° 02' 27"
Sunlit
Object was in daylight at TLE epoch
Visualization TLE readout
Latitude
-15.97589°
Longitude
-162.25621°
Altitude
960.007 km
Speed
7.406 km/s
Apparent Right ascension
11h 37m 45s
Apparent Declination
-27° 23' 33"
Sunlit
Object is in full shadow
Visualization observer readout
Local Sidereal Time
00:31:05
Azimuth
45.467° ENE
Elevation
-73.304°
Doppler factor
1
Orbital elements
Apogee altitude
1,102.859 km
Perigee altitude
952.107 km
Semi-major axis
7,405.62 km
Eccentricity
0.0101782
Inclination
32.443°
RAAN
325.6115°
Arg. of periapsis
228.6908°
True anomaly
299.93077°
Mean anomaly
300.9377°
Eccentric anomaly
300.43489°
Mean motion
3.40566 °/min
BSTAR
0.00007616
Orbital period
105.71 mins
Loading maneuver chart data...
Loading SW <> Apogee altitude chart data...
Loading historical data...
Loading historical data...
Loading historical data...
Loading historical data...
Loading historical data...
Loading historical data...
Loading historical data...
Other satellites on launch #31 in the year 1961 (1961-11-15 UTC)

TRAAC DEB Visibility forecast

Observer location: undefined°, undefined°

Span
Click to sort rows by Start time (UTC) header in descending order
Start Az.
Max El. time (UTC)
Max El. Az.
Max El.
End time (UTC)
End Az.
12 mins2025-05-09 17:19:37.906Z227.887° WSW2025-05-09 17:25:37.906Z158.22° S31.815°2025-05-09 17:31:37.906Z101.21° ESE
12 mins2025-05-09 19:11:37.906Z249.094° W2025-05-09 19:17:37.906Z171.059° S35.652°2025-05-09 19:23:37.906Z112.354° ESE
10 mins2025-05-09 21:04:37.906Z249.689° W2025-05-09 21:08:37.906Z204.508° SW28.291°2025-05-09 21:14:37.906Z139.657° SSE
4 mins2025-05-09 22:58:37.906Z228.307° WSW2025-05-09 23:00:37.906Z210.029° SW13.016°2025-05-09 23:02:37.906Z192° SSW
11 mins2025-05-10 16:08:37.906Z212.217° SW2025-05-10 16:13:37.906Z158.953° S26.969°2025-05-10 16:19:37.906Z101.732° ESE
|